GHARV ENGS-ENOP

Flight info

Callsign GHARV
Flight time 0h 56m
Altitude 3500
Route DIRECT
Aircraft BE36/L-L/ICAO

Departure

Time 2026-05-06 18:04
Airport Snåsa Airfield Grønøra (ENGS)

Arrival

Time 2026-05-06 19:00
Airport Fagerhaug Airfield (ENOP)
Time Latitude Longitude Altitude Speed Heading
2026-05-06 17:48 64.18261 12.17162 82 ft 0 kts 318°
2026-05-06 18:01 64.18297 12.17138 82 ft 12 kts 32°
2026-05-06 18:01 64.18348 12.17259 83 ft 10 kts 43°
2026-05-06 18:02 64.18433 12.17426 85 ft 12 kts 35°
2026-05-06 18:02 64.18442 12.17440 85 ft 0 kts 32°
2026-05-06 18:03 64.18449 12.17418 84 ft 1 kts 233°
2026-05-06 18:03 64.18437 12.17385 84 ft 21 kts 229°
2026-05-06 18:03 64.18177 12.16705 136 ft 76 kts 237°
2026-05-06 18:03 64.18058 12.15568 472 ft 79 kts 270°
2026-05-06 18:04 64.18010 12.14305 845 ft 86 kts 264°
2026-05-06 18:04 64.17966 12.12869 1179 ft 97 kts 270°
2026-05-06 18:04 64.17944 12.11123 1350 ft 123 kts 267°
2026-05-06 18:04 64.17847 12.09000 1470 ft 142 kts 259°
2026-05-06 18:05 64.17577 12.06745 1661 ft 149 kts 250°
2026-05-06 18:05 64.17186 12.04485 1777 ft 158 kts 246°
2026-05-06 18:05 64.16716 12.02159 1880 ft 163 kts 245°
2026-05-06 18:05 64.16225 11.99826 2023 ft 163 kts 243°
2026-05-06 18:06 64.15685 11.97533 2122 ft 166 kts 239°
2026-05-06 18:06 64.15049 11.95291 2227 ft 167 kts 234°
2026-05-06 18:06 64.14374 11.93210 2399 ft 164 kts 235°
2026-05-06 18:06 64.13773 11.90957 2477 ft 167 kts 242°
2026-05-06 18:07 64.13281 11.88533 2604 ft 166 kts 248°
2026-05-06 18:07 64.12947 11.86039 2720 ft 167 kts 258°
2026-05-06 18:07 64.12823 11.83373 2799 ft 168 kts 269°
2026-05-06 18:07 64.12818 11.80620 2523 ft 188 kts 268°
2026-05-06 18:08 64.12555 11.77575 1975 ft 207 kts 253°
2026-05-06 18:08 64.12036 11.74601 1769 ft 189 kts 244°
2026-05-06 18:08 64.11471 11.72028 1530 ft 176 kts 247°
2026-05-06 18:08 64.11158 11.69403 1356 ft 165 kts 261°
2026-05-06 18:09 64.11026 11.66864 1189 ft 159 kts 265°
2026-05-06 18:09 64.10928 11.64397 1050 ft 154 kts 256°
2026-05-06 18:09 64.10322 11.62646 1189 ft 135 kts 206°
2026-05-06 18:09 64.09402 11.62333 1134 ft 136 kts 179°
2026-05-06 18:10 64.08458 11.62458 1249 ft 131 kts 174°
2026-05-06 18:10 64.07577 11.62796 1352 ft 133 kts 176°
2026-05-06 18:10 64.06647 11.62373 1333 ft 139 kts 205°
2026-05-06 18:10 64.05850 11.61206 1456 ft 136 kts 215°
2026-05-06 18:11 64.05134 11.59769 1503 ft 138 kts 226°
2026-05-06 18:11 64.04510 11.58118 1581 ft 137 kts 233°
2026-05-06 18:11 64.03963 11.56352 1640 ft 138 kts 236°
2026-05-06 18:11 64.03423 11.54536 1718 ft 137 kts 237°
2026-05-06 18:12 64.02901 11.52727 1773 ft 138 kts 234°
2026-05-06 18:12 64.02285 11.51024 1839 ft 138 kts 232°
2026-05-06 18:12 64.01681 11.49315 1905 ft 138 kts 228°
2026-05-06 18:12 64.01006 11.47760 1949 ft 139 kts 230°
2026-05-06 18:13 64.00520 11.45840 1989 ft 140 kts 246°
2026-05-06 18:13 64.00135 11.43861 2087 ft 137 kts 246°
2026-05-06 18:13 63.99732 11.41787 1980 ft 148 kts 246°
2026-05-06 18:13 63.99320 11.39572 1866 ft 154 kts 246°
2026-05-06 18:14 63.98862 11.37422 1926 ft 148 kts 244°
2026-05-06 18:14 63.98399 11.35320 1873 ft 151 kts 243°
2026-05-06 18:14 63.97914 11.33203 1837 ft 152 kts 248°
2026-05-06 18:14 63.97611 11.30891 1829 ft 151 kts 252°
2026-05-06 18:15 63.97302 11.28583 1693 ft 157 kts 255°
2026-05-06 18:15 63.97017 11.26181 1661 ft 155 kts 252°
2026-05-06 18:15 63.96618 11.23944 1613 ft 155 kts 239°
2026-05-06 18:15 63.95808 11.22283 1404 ft 163 kts 206°
2026-05-06 18:16 63.94973 11.20628 1240 ft 166 kts 244°
2026-05-06 18:16 63.94807 11.18096 1217 ft 158 kts 274°
2026-05-06 18:16 63.94890 11.15751 1410 ft 143 kts 269°
2026-05-06 18:16 63.94730 11.13523 1445 ft 143 kts 248°
2026-05-06 18:17 63.94221 11.11580 1377 ft 150 kts 239°
2026-05-06 18:17 63.93657 11.09540 1325 ft 151 kts 232°
2026-05-06 18:17 63.92952 11.07850 1392 ft 146 kts 225°
2026-05-06 18:17 63.92357 11.05962 1306 ft 153 kts 251°
2026-05-06 18:18 63.92244 11.03571 1332 ft 148 kts 269°
2026-05-06 18:18 63.92233 11.01269 1310 ft 151 kts 265°
2026-05-06 18:18 63.91975 10.98953 1319 ft 148 kts 246°
2026-05-06 18:18 63.91534 10.96867 1309 ft 149 kts 240°
2026-05-06 18:19 63.91012 10.94898 1371 ft 145 kts 237°
2026-05-06 18:19 63.90415 10.93043 1396 ft 144 kts 229°
2026-05-06 18:19 63.89848 10.91160 1414 ft 145 kts 236°
2026-05-06 18:19 63.89254 10.89309 1437 ft 145 kts 236°
2026-05-06 18:20 63.88719 10.87339 1422 ft 149 kts 239°
2026-05-06 18:20 63.88165 10.85319 1436 ft 154 kts 237°
2026-05-06 18:20 63.87605 10.83198 1394 ft 160 kts 240°
2026-05-06 18:20 63.87066 10.80946 1367 ft 164 kts 241°
2026-05-06 18:21 63.86516 10.78661 1372 ft 166 kts 239°
2026-05-06 18:21 63.85908 10.76442 1301 ft 170 kts 243°
2026-05-06 18:21 63.85401 10.74026 1314 ft 169 kts 245°
2026-05-06 18:21 63.84868 10.71645 1229 ft 173 kts 242°
2026-05-06 18:22 63.84219 10.69355 1186 ft 172 kts 231°
2026-05-06 18:22 63.83476 10.67269 1229 ft 169 kts 231°
2026-05-06 18:22 63.82726 10.65234 1221 ft 168 kts 228°
2026-05-06 18:22 63.81929 10.63310 1176 ft 171 kts 226°
2026-05-06 18:23 63.81153 10.61214 1072 ft 175 kts 233°
2026-05-06 18:23 63.80442 10.58924 856 ft 182 kts 236°
2026-05-06 18:23 63.79729 10.56564 763 ft 179 kts 236°
2026-05-06 18:23 63.79068 10.54304 880 ft 168 kts 237°
2026-05-06 18:24 63.78458 10.52119 971 ft 164 kts 237°
2026-05-06 18:24 63.77825 10.50011 1102 ft 159 kts 233°
2026-05-06 18:24 63.77091 10.48129 1124 ft 163 kts 222°
2026-05-06 18:24 63.76297 10.46305 1155 ft 163 kts 229°
2026-05-06 18:25 63.75567 10.44440 1355 ft 155 kts 231°
2026-05-06 18:25 63.74896 10.42530 1443 ft 156 kts 232°
2026-05-06 18:25 63.74245 10.40608 1596 ft 153 kts 232°
2026-05-06 18:25 63.73567 10.38704 1672 ft 156 kts 229°
2026-05-06 18:26 63.72855 10.36843 1776 ft 156 kts 231°
2026-05-06 18:26 63.72208 10.34934 1886 ft 155 kts 232°
2026-05-06 18:26 63.71561 10.32989 2012 ft 154 kts 231°
2026-05-06 18:26 63.70877 10.31131 2092 ft 156 kts 227°
2026-05-06 18:27 63.70129 10.29341 2193 ft 155 kts 225°
2026-05-06 18:27 63.69414 10.27555 2295 ft 155 kts 228°
2026-05-06 18:27 63.68703 10.25714 2375 ft 156 kts 229°
2026-05-06 18:27 63.68075 10.23665 2437 ft 158 kts 235°
2026-05-06 18:28 63.67456 10.21644 2503 ft 159 kts 234°
2026-05-06 18:28 63.66828 10.19561 2432 ft 166 kts 235°
2026-05-06 18:28 63.66193 10.17364 2411 ft 167 kts 237°
2026-05-06 18:28 63.65567 10.15149 2430 ft 166 kts 237°
2026-05-06 18:29 63.64948 10.12943 2430 ft 166 kts 237°
2026-05-06 18:29 63.64326 10.10825 2492 ft 163 kts 235°
2026-05-06 18:29 63.63689 10.08730 2605 ft 159 kts 235°
2026-05-06 18:29 63.63063 10.06694 2646 ft 160 kts 235°
2026-05-06 18:30 63.62463 10.04589 2751 ft 158 kts 238°
2026-05-06 18:30 63.61911 10.02525 2894 ft 154 kts 239°
2026-05-06 18:30 63.61371 10.00431 3002 ft 153 kts 239°
2026-05-06 18:30 63.60830 9.98422 3160 ft 150 kts 238°
2026-05-06 18:31 63.60294 9.96384 3269 ft 151 kts 239°
2026-05-06 18:31 63.59777 9.94364 3411 ft 150 kts 239°
2026-05-06 18:31 63.59262 9.92321 3569 ft 147 kts 233°
2026-05-06 18:31 63.58538 9.90824 3776 ft 144 kts 214°
2026-05-06 18:32 63.57632 9.90116 4019 ft 138 kts 180°
2026-05-06 18:32 63.56678 9.90379 4197 ft 139 kts 164°
2026-05-06 18:32 63.55752 9.91093 4329 ft 142 kts 158°
2026-05-06 18:32 63.54853 9.91963 4476 ft 143 kts 159°
2026-05-06 18:33 63.53900 9.92667 4564 ft 147 kts 162°
2026-05-06 18:33 63.52894 9.93341 4614 ft 153 kts 164°
2026-05-06 18:33 63.51852 9.93909 4597 ft 159 kts 166°
2026-05-06 18:33 63.50756 9.94526 4448 ft 170 kts 165°
2026-05-06 18:34 63.49526 9.95222 4003 ft 188 kts 166°
2026-05-06 18:34 63.48279 9.95903 3902 ft 182 kts 166°
2026-05-06 18:34 63.47056 9.96536 3757 ft 182 kts 165°
2026-05-06 18:34 63.45828 9.97298 3542 ft 184 kts 163°
2026-05-06 18:35 63.44605 9.98098 3410 ft 182 kts 162°
2026-05-06 18:35 63.43412 9.98900 3351 ft 177 kts 163°
2026-05-06 18:35 63.42239 9.99727 3315 ft 174 kts 160°
2026-05-06 18:35 63.41111 10.00590 3315 ft 170 kts 162°
2026-05-06 18:36 63.40000 10.01333 3320 ft 168 kts 163°
2026-05-06 18:36 63.38884 10.02184 3258 ft 171 kts 155°
2026-05-06 18:36 63.37831 10.03589 2853 ft 186 kts 144°
2026-05-06 18:36 63.36803 10.05373 2597 ft 184 kts 141°
2026-05-06 18:37 63.35866 10.07245 2455 ft 179 kts 130°
2026-05-06 18:37 63.35207 10.09504 2341 ft 175 kts 115°
2026-05-06 18:37 63.34876 10.12063 2253 ft 172 kts 99°
2026-05-06 18:37 63.34685 10.14706 2114 ft 172 kts 97°
2026-05-06 18:38 63.34513 10.17293 2076 ft 168 kts 98°
2026-05-06 18:38 63.34304 10.19836 2052 ft 165 kts 104°
2026-05-06 18:38 63.33900 10.22222 1990 ft 165 kts 116°
2026-05-06 18:38 63.33316 10.24395 1953 ft 164 kts 126°
2026-05-06 18:39 63.32516 10.26177 1942 ft 162 kts 144°
2026-05-06 18:39 63.31522 10.27160 1997 ft 158 kts 169°
2026-05-06 18:39 63.30428 10.27365 2012 ft 157 kts 174°
2026-05-06 18:40 63.28301 10.28711 2055 ft 148 kts 172°
2026-05-06 18:40 63.27292 10.28729 1520 ft 154 kts 184°
2026-05-06 18:40 63.26271 10.28545 1180 ft 143 kts 183°
2026-05-06 18:40 63.25381 10.28334 959 ft 112 kts 186°
2026-05-06 18:41 63.24682 10.28163 772 ft 92 kts 184°
2026-05-06 18:41 63.24044 10.28054 642 ft 93 kts 185°
2026-05-06 18:41 63.23493 10.28206 766 ft 74 kts 163°
2026-05-06 18:41 63.22956 10.28412 765 ft 82 kts 188°
2026-05-06 18:42 63.22393 10.28017 766 ft 88 kts 197°
2026-05-06 18:42 63.21781 10.27596 682 ft 97 kts 195°
2026-05-06 18:42 63.21132 10.27630 644 ft 96 kts 153°
2026-05-06 18:42 63.20551 10.28329 490 ft 89 kts 149°
2026-05-06 18:43 63.20049 10.28888 188 ft 76 kts 160°
2026-05-06 18:43 63.19587 10.29174 82 ft 74 kts 166°
2026-05-06 18:43 63.19083 10.29453 403 ft 65 kts 166°
2026-05-06 18:43 63.18565 10.29725 637 ft 91 kts 169°
2026-05-06 18:44 63.17874 10.29872 964 ft 105 kts 176°
2026-05-06 18:44 63.17135 10.29774 1096 ft 135 kts 194°
2026-05-06 18:44 63.16209 10.28578 906 ft 165 kts 212°
2026-05-06 18:44 63.15266 10.27150 1101 ft 162 kts 215°
2026-05-06 18:45 63.14350 10.25641 1244 ft 164 kts 215°
2026-05-06 18:45 63.13366 10.24438 1471 ft 160 kts 203°
2026-05-06 18:45 63.12324 10.23601 1599 ft 163 kts 194°
2026-05-06 18:45 63.11211 10.23393 1810 ft 160 kts 181°
2026-05-06 18:46 63.10076 10.23432 1762 ft 174 kts 170°
2026-05-06 18:46 63.08950 10.24381 1826 ft 172 kts 149°
2026-05-06 18:46 63.08075 10.26230 1709 ft 181 kts 135°
2026-05-06 18:46 63.07028 10.27688 1782 ft 176 kts 156°
2026-05-06 18:47 63.05877 10.28569 1741 ft 180 kts 163°
2026-05-06 18:47 63.04633 10.28860 1744 ft 178 kts 186°
2026-05-06 18:47 63.03592 10.27740 1635 ft 162 kts 219°
2026-05-06 18:47 63.02798 10.26102 1492 ft 154 kts 220°
2026-05-06 18:48 63.01888 10.25094 1418 ft 145 kts 196°
2026-05-06 18:48 63.00883 10.24513 1163 ft 149 kts 193°
2026-05-06 18:48 62.99975 10.24183 1330 ft 129 kts 174°
2026-05-06 18:48 62.99063 10.24348 1083 ft 138 kts 189°
2026-05-06 18:49 62.98219 10.23619 1155 ft 121 kts 207°
2026-05-06 18:49 62.97589 10.22627 1284 ft 107 kts 223°
2026-05-06 18:49 62.97136 10.21370 1332 ft 103 kts 237°
2026-05-06 18:49 62.96750 10.20058 1485 ft 102 kts 230°
2026-05-06 18:50 62.96321 10.18840 1721 ft 96 kts 233°
2026-05-06 18:50 62.95725 10.18117 1774 ft 109 kts 182°
2026-05-06 18:50 62.94918 10.18323 1796 ft 121 kts 174°
2026-05-06 18:50 62.94083 10.18374 1946 ft 120 kts 184°
2026-05-06 18:51 62.93334 10.17584 2017 ft 125 kts 227°
2026-05-06 18:51 62.92842 10.16109 2237 ft 117 kts 225°
2026-05-06 18:51 62.92177 10.14918 2226 ft 128 kts 216°
2026-05-06 18:51 62.91489 10.13750 2398 ft 123 kts 217°
2026-05-06 18:52 62.90802 10.12577 2420 ft 130 kts 218°
2026-05-06 18:52 62.90060 10.11468 2546 ft 127 kts 208°
2026-05-06 18:52 62.89252 10.10600 2517 ft 136 kts 202°
2026-05-06 18:52 62.88383 10.09735 2504 ft 140 kts 204°
2026-05-06 18:53 62.87521 10.08686 2490 ft 142 kts 220°
2026-05-06 18:53 62.87175 10.06785 2583 ft 136 kts 267°
2026-05-06 18:53 62.87039 10.04711 2561 ft 140 kts 252°
2026-05-06 18:53 62.86609 10.02994 2793 ft 127 kts 215°
2026-05-06 18:54 62.85762 10.02449 2821 ft 131 kts 190°
2026-05-06 18:54 62.84835 10.02069 2802 ft 137 kts 189°
2026-05-06 18:54 62.83881 10.01812 2677 ft 144 kts 181°
2026-05-06 18:54 62.82838 10.01809 2561 ft 153 kts 179°
2026-05-06 18:55 62.81806 10.01664 2612 ft 149 kts 190°
2026-05-06 18:55 62.80795 10.01092 2596 ft 150 kts 198°
2026-05-06 18:55 62.79819 10.00312 2609 ft 150 kts 199°
2026-05-06 18:55 62.78804 9.99639 2518 ft 155 kts 193°
2026-05-06 18:56 62.77746 9.99046 2399 ft 159 kts 189°
2026-05-06 18:56 62.76659 9.98944 2457 ft 152 kts 182°
2026-05-06 18:56 62.75678 9.98647 2701 ft 136 kts 192°
2026-05-06 18:56 62.74768 9.98083 2858 ft 136 kts 198°
2026-05-06 18:57 62.73868 9.97391 2955 ft 139 kts 197°
2026-05-06 18:57 62.72928 9.96717 2961 ft 147 kts 199°
2026-05-06 18:57 62.71948 9.95936 2932 ft 153 kts 198°
2026-05-06 18:57 62.71007 9.95316 2888 ft 127 kts 198°
2026-05-06 18:58 62.70213 9.94731 2714 ft 118 kts 198°
2026-05-06 18:58 62.69490 9.94206 2692 ft 101 kts 199°
2026-05-06 18:58 62.68821 9.93722 2580 ft 101 kts 199°
2026-05-06 18:58 62.68182 9.93173 2519 ft 97 kts 204°
2026-05-06 18:59 62.67619 9.92461 2524 ft 91 kts 213°
2026-05-06 18:59 62.67117 9.91689 2519 ft 89 kts 214°
2026-05-06 18:59 62.66607 9.90904 2482 ft 92 kts 218°
2026-05-06 18:59 62.66102 9.89940 2356 ft 98 kts 221°
2026-05-06 19:00 62.65672 9.88845 2237 ft 94 kts 245°
2026-05-06 19:00 62.65485 9.87544 2121 ft 83 kts 254°
2026-05-06 19:00 62.65320 9.86384 1903 ft 77 kts 252°
2026-05-06 19:00 62.65177 9.85438 1826 ft 37 kts 253°
2026-05-06 19:01 62.65150 9.85377 1826 ft 10 kts 75°
2026-05-06 19:01 62.65125 9.85440 1824 ft 10 kts 169°
2026-05-06 19:01 62.65086 9.85465 1822 ft 10 kts 160°
2026-05-06 19:01 62.65040 9.85527 1819 ft 3 kts 207°
2026-05-06 19:02 62.65037 9.85519 1819 ft 0 kts 249°
2026-05-06 19:02 62.65040 9.85532 1819 ft 0 kts 249°
2026-05-06 19:02 62.65038 9.85528 1819 ft 0 kts 249°
2026-05-06 19:03 62.65037 9.85521 1819 ft 0 kts 249°